Location: La Silve
(44.2414°N, 5.8889°E)
Time: 08:21:07
(UTC+00:00)

deb Delta 111 - Visible Passes

Search period start: 21 June 2021 00:00
Search period end: 01 July 2021 00:00
Orbit: 1050 x 1300 km, 99.3° (Epoch: 19 June)

Date Brightness Start Highest point End Pass type
(mag) Time Alt. Az. Time Alt. Az. Time Alt. Az.
21 Jun ? 20:24:29 10° NNE 20:31:51 62° ESE 20:39:26 10° S visible
21 Jun ? 22:12:29 10° N 22:18:44 31° WNW 22:25:11 10° WSW visible
22 Jun ? 20:01:11 10° NNE 20:08:17 45° E 20:15:33 10° SSE visible
22 Jun ? 21:48:41 10° N 21:55:31 43° WNW 22:02:36 10° SW visible
23 Jun ? 21:24:58 10° N 21:32:15 58° WNW 21:39:43 10° SW visible
23 Jun ? 23:14:48 10° NNW 23:18:07 14° NW 23:21:28 10° WNW visible
24 Jun ? 21:01:23 10° NNE 21:08:53 79° WNW 21:16:34 10° SSW visible
24 Jun ? 22:50:19 10° NNW 22:55:08 19° NW 23:00:03 10° W visible
25 Jun ? 20:37:54 10° NNE 20:45:26 77° ESE 20:53:09 10° S visible
25 Jun ? 22:26:13 10° N 22:32:04 26° WNW 22:38:03 10° WSW visible
26 Jun ? 20:14:31 10° NNE 20:21:56 56° E 20:29:27 10° S visible
26 Jun ? 22:02:20 10° N 22:08:55 35° WNW 22:15:39 10° WSW visible
27 Jun ? 19:51:18 10° NNE 19:58:19 40° E 20:05:26 10° SSE visible
27 Jun ? 21:38:34 10° N 21:45:41 48° WNW 21:52:57 10° SW visible
27 Jun ? 23:29:29 10° NNW 23:31:16 11° NW 23:33:04 10° WNW visible
28 Jun ? 21:14:56 10° N 21:22:23 65° WNW 21:29:58 10° SSW visible
28 Jun ? 23:04:19 10° NNW 23:08:22 16° NW 23:12:26 10° W visible
29 Jun ? 20:51:22 10° NNE 20:59:00 88° WNW 21:06:44 10° SSW visible
29 Jun ? 22:40:03 10° N 22:45:21 21° NW 22:50:45 10° W visible
30 Jun ? 20:27:56 10° NNE 20:35:32 69° ESE 20:43:12 10° S visible
30 Jun ? 22:16:04 10° N 22:22:16 29° WNW 22:28:35 10° WSW visible
